User: anonymous   Login
Location: Rounton
(54.4000°N, 1.3500°W)
Time: 23:07:11
(UTC+00:00)
Language:

Transit 2A Rocket - Orbit

View from above orbital plane
View from above orbital plane
View from above satellite
View from above satellite

Ground track
Ground track

The orbit data is extracted from the following two-line orbital elements,

1 00047U 60007C   21333.26723286  .00000021  00000-0  29639-4 0  9998
2 00047  66.6640 178.2483 0234666 275.4606  81.9772 14.42197660211076
Epoch (UTC): 29 November 2021 06:24:48
Eccentricity: 0.0234666
inclination: 66.6640°
perigee height: 584 km
apogee height: 918 km
right ascension of ascending node: 178.2483°
argument of perigee: 275.4606°
revolutions per day: 14.42197660
mean anomaly at epoch: 81.9772°
orbit number at epoch: 21107

The dashed part of the orbit path shows where the satellite is in the earth's shadow,  

DLR